Home > Time Zones > World Clock > Weather > U.S.A. > Waco > Past weeks

Flag for U.S.A. Weather past 2 weeks in Waco, Texas, U.S.A.

Now
86 °F

Clear.


Feels Like: 92 °F
Forecast: 77 / 98 °F
Wind: 25 mph from South

Location: Waco Regional Airport

Current Time: Aug 22, 2014 at 12:58:01 AM

Latest Report: Aug 21, 2014 at 11:51 PM


Visibility: 10 mi

Pressure: 29.97 "Hg

Humidity: 61%

Dew point: 71 °F

Location of WacoLocation

Historic Weather in Waco — Graph

°F

Waco temperature yesterday

Maximum temperature yesterday: 100 °F (at 3:51 PM)
Minimum temperature yesterday: 78 °F (at 6:51 AM)
Average temperature yesterday: 89 °F

Past Weeks' High & Low Weather Summary

 TemperatureHumidityPressure
High102 °F (Aug 8, 2:51 PM)97% (Aug 12, 2:51 AM)30.11 "Hg (Aug 12, 2:51 AM)
Low63 °F (Aug 13, 5:51 AM)19% (Aug 12, 4:51 PM)29.77 "Hg (Aug 7, 6:51 PM)
Average86 °F58%29.94 "Hg
* Reported Aug 6 11:51 PM — Aug 21 11:51 PM, Waco, Weather by CustomWeather, © 2014

Note: Actual official high and low records may vary slightly from our data, if they occured in-between our weather recording intervals... More about our weather records

Advertising

Waco weather history for previous 24 hours

 ConditionsComfort  
Time TempWeatherWind HumidityBarometerVisibility
11:51 PM
Aug 21
86 °FClear.25 mph61%29.97 "Hg10 mi
10:51 PM88 °FClear.17 mph50%29.97 "Hg10 mi
9:51 PM90 °FClear.14 mph42%29.95 "Hg10 mi
8:51 PM92 °FSunny.15 mph37%29.93 "Hg10 mi
7:51 PM94 °FSunny.12 mph36%29.93 "Hg10 mi
6:51 PM97 °FSunny.13 mph32%29.92 "Hg10 mi
5:51 PM99 °FSunny.18 mph29%29.92 "Hg10 mi
4:51 PM100 °FSunny.18 mph29%29.92 "Hg10 mi
3:51 PM100 °FSunny.22 mph29%29.94 "Hg10 mi
2:51 PM99 °FSunny.20 mph30%29.96 "Hg10 mi
1:51 PM98 °FSunny.16 mph32%29.98 "Hg10 mi
12:51 PM96 °FSunny.18 mph37%30.00 "Hg10 mi
11:51 AM93 °FSunny.17 mph44%30.01 "Hg10 mi
10:51 AM89 °FScattered clouds.20 mph55%30.02 "Hg10 mi
9:51 AM86 °FPartly sunny.17 mph65%30.02 "Hg9 mi
8:51 AM83 °FPassing clouds.16 mph77%30.02 "Hg9 mi
7:51 AM80 °FPassing clouds.10 mph85%30.01 "Hg8 mi
6:51 AM78 °FClear.12 mph87%30.00 "Hg9 mi
5:51 AM79 °FPassing clouds.13 mph84%29.98 "Hg10 mi
4:51 AM79 °FClear.17 mph84%29.96 "Hg10 mi
3:51 AM79 °FClear.15 mph82%29.95 "Hg10 mi
2:51 AM80 °FClear.16 mph79%29.96 "Hg10 mi
1:51 AM82 °FClear.18 mph72%29.96 "Hg10 mi
12:51 AM83 °FClear.17 mph70%29.96 "Hg10 mi
Weather by CustomWeather, © 2014

See weather overviewHow to use our weather pages